Simultaneous Nadir Overpasses (SNOs) Predictions

Prediction of SNOs between NOAA-19 and TERRA Satellite Orbit:

Table of predicted SNOs for the next 14.0 days since TLE Epoch: 12/26/2020
Index Date (NOAA-19) Time (NOAA-19) Lat,Lon (NOAA-19) SZA (NOAA-19 ) Date (TERRA) Time (TERRA) Lat,Lon (TERRA) SZA (TERRA ) Distance(km) Time Diff (sec)
1 12/27/2020 03:34:34 79.94, 157.64 104.55 12/27/2020 03:35:42 79.95, 157.52 104.58 2.99 68
2 12/27/2020 04:25:33 -79.94, -35.11 75.46 12/27/2020 04:25:10 -79.92, -35.14 75.49 2.41 23
3 12/29/2020 09:58:48 79.94, 61.63 104.41 12/29/2020 09:58:52 79.96, 61.75 104.44 2.87 4
4 12/31/2020 15:32:00 -79.96, 158.19 75.77 12/31/2020 15:32:36 -79.96, 158.31 75.75 2.20 36
5 12/31/2020 16:23:02 79.95, -34.40 104.23 12/31/2020 16:22:03 79.92, -34.33 104.20 2.99 59
6 01/02/2021 21:05:16 79.96,-105.09 104.02 01/02/2021 21:06:19 79.95,-105.16 104.03 1.90 63
7 01/02/2021 21:56:12 -79.93, 62.61 75.98 01/02/2021 21:55:46 -79.95, 62.50 75.97 3.58 26
8 01/05/2021 03:29:29 79.95, 159.15 103.78 01/05/2021 03:29:29 79.95, 159.00 103.76 3.00 0
9 01/07/2021 09:02:39 -79.95,-104.15 76.52 01/07/2021 09:03:12 -79.98,-104.18 76.49 2.65 33



Historial Predications of SNOs between NOAA-19 and TERRA
